Regional Weather Roundup
Issued by NWS

Home | Current Version | Previous Version | Graphics & Text | Print | Product List | Glossary On
Versions: 1 2 3 4 5 6 7 8 9 10 11 12 13 14 15 16 17 18 19 20 21 22 23 24 25 26 27 28 29 30 31 32 33 34 35 36 37 38 39 40 41 42 43 44 45 46 47 48 49 50
591
ASUS43 KTOP 240959
RWRKS

WEATHER ROUNDUP FOR KANSAS
NATIONAL WEATHER SERVICE GOODLAND KS
400 AM CST TUE JAN 24 2017

NOTE:  "FAIR" INDICATES FEW OR NO CLOUDS BELOW 12,000 FEET WITH NO
SIGNIFICANT WEATHER AND/OR OBSTRUCTIONS TO VISIBILITY.

KSZ001>006-013>018-027>032-041>047-241100-
NORTHWEST KANSAS

CITY           SKY/WX    TMP DP  RH WIND       PRES   REMARKS
GOODLAND       CLOUDY    29  27  92 NW3       29.42F
HAYS           CLEAR     31  29  92 E9        29.48F
HILL CITY      PTCLDY    32  30  92 E8        29.50S
RUSSELL        CLEAR     32  29  88 E10       29.49F WCI  24
$$

KSZ061>065-074>080-084>089-241100-
SOUTHWEST KANSAS

CITY           SKY/WX    TMP DP  RH WIND       PRES   REMARKS
DODGE CITY     CLEAR     35  32  88 S9        29.47F
ELKHART          N/A     41  22  47 SW15        N/A
GARDEN CITY    CLEAR     39  29  67 SW3       29.44F
GREAT BEND     CLEAR     31  29  92 SE7       29.50F
LIBERAL          N/A     36  25  64 SW10      29.47F WCI  28
$$

KSZ066>073-081>083-090>101-241100-
SOUTHEAST KANSAS

CITY           SKY/WX    TMP DP  RH WIND       PRES   REMARKS
CHANUTE        PTCLDY    39  32  76 E13       29.66F WCI  31
COFFEYVILLE    CLOUDY    42  34  73 SE10      29.66F
HUTCHINSON     CLEAR     40  31  70 SE14      29.53F WCI  32
MEDICINE LODGE   N/A     36  30  79 E8        29.51F
NEWTON         CLOUDY    36  31  82 SE13      29.56F WCI  27
PARSONS        CLOUDY    45  33  63 E8G16     29.66F
WICHITA INTL   CLOUDY    40  31  70 SE12      29.55F WCI  33
WICHITA JABRA  CLOUDY    40  32  73 SE12      29.56F WCI  33
WINFIELD       CLOUDY    42  32  67 SE9       29.59F
$$

KSZ007>012-019>026-033>040-048>060-102>105-241100-
NORTHEAST KANSAS

CITY           SKY/WX    TMP DP  RH WIND       PRES   REMARKS
CONCORDIA      CLOUDY    36  33  89 E13       29.60F WCI  27
EMPORIA        PTCLDY    37  32  82 E16       29.62F WCI  28
LAWRENCE       CLEAR     31  30  96 E10       29.75F FOG     WCI  22
MANHATTAN      PTCLDY    35  31  85 E13       29.64F WCI  26
OLATHE IND     CLEAR     32  30  92 E9        29.75F
OLATHE EXE     CLEAR     31  30  96 E9        29.76F
SALINA           N/A    N/A N/A N/A MISG        N/A
TOPEKA BILLARD CLEAR     34  30  85 E12       29.72F WCI  25
TOPEKA FORBES  CLEAR     34  31  88 E12       29.70F WCI  25
$$




USA.gov is the U.S. government's official web portal to all federal, state and local government web resources and services.